Time,TemperatureF,DewpointF,PressureIn,WindDirection,WindDirectionDegrees,WindSpeedMPH,WindSpeedGustMPH,Humidity,HourlyPrecipIn,Conditions,Clouds,dailyrainin,SoftwareType,DateUTC
2013-01-16 00:00:00,73.4,62.2,29.97,North,0,3.1,4.9,61,0.00,,,-99.99,Homeseer,2013-01-16 05:00:00,
2013-01-16 00:10:00,73.6,62.4,29.97,North,0,4.5,4.5,61,0.00,,,-99.99,Homeseer,2013-01-16 05:10:00,
2013-01-16 00:20:00,73.4,61.5,29.97,North,0,4.3,4.3,59,0.00,,,-99.99,Homeseer,2013-01-16 05:20:00,
2013-01-16 00:30:00,73.4,62.6,29.97,SSE,157,4.7,4.7,62,0.00,,,-99.99,Homeseer,2013-01-16 05:30:00,
2013-01-16 00:40:00,73.2,62.8,29.97,SSE,157,2.7,2.7,63,0.00,,,-99.99,Homeseer,2013-01-16 05:40:00,
2013-01-16 00:50:00,73.2,63.1,29.97,ESE,112,2.9,3.6,64,0.00,,,-99.99,Homeseer,2013-01-16 05:50:00,
2013-01-16 01:00:00,73.2,62.8,29.97,SSE,157,2.7,2.7,63,0.00,,,-99.99,Homeseer,2013-01-16 06:00:00,
2013-01-16 01:10:00,73.0,61.5,29.97,SE,135,3.6,3.6,60,0.00,,,-99.99,Homeseer,2013-01-16 06:10:00,
2013-01-16 01:20:00,73.2,59.4,29.97,SSE,157,2.9,4.0,54,0.00,,,-99.99,Homeseer,2013-01-16 06:20:00,
2013-01-16 01:30:00,73.2,59.4,29.97,North,0,2.9,2.9,54,0.00,,,-99.99,Homeseer,2013-01-16 06:30:00,
2013-01-16 01:40:00,73.0,59.6,29.97,North,0,2.7,3.8,55,0.00,,,-99.99,Homeseer,2013-01-16 06:40:00,
2013-01-16 01:50:00,73.0,58.0,29.97,ESE,112,3.1,4.3,51,0.00,,,-99.99,Homeseer,2013-01-16 06:50:00,
2013-01-16 02:00:00,73.4,58.4,29.97,South,180,2.7,2.7,51,0.00,,,-99.99,Homeseer,2013-01-16 07:00:00,
2013-01-16 02:10:00,72.9,59.6,29.97,SE,135,3.6,3.6,55,0.00,,,-99.99,Homeseer,2013-01-16 07:10:00,
2013-01-16 02:20:00,73.0,61.2,29.97,North,0,2.5,2.5,59,0.00,,,-99.99,Homeseer,2013-01-16 07:20:00,
2013-01-16 02:30:00,72.9,62.1,29.97,South,180,3.4,4.3,62,0.00,,,-99.99,Homeseer,2013-01-16 07:30:00,
2013-01-16 02:40:00,73.0,62.9,29.97,SE,135,2.7,2.7,64,0.00,,,-99.99,Homeseer,2013-01-16 07:40:00,
2013-01-16 02:50:00,73.0,61.9,29.97,SSE,157,1.6,1.6,61,0.00,,,-99.99,Homeseer,2013-01-16 07:50:00,
2013-01-16 03:00:00,72.9,61.8,29.97,North,0,0.9,1.3,61,0.00,,,-99.99,Homeseer,2013-01-16 08:00:00,
2013-01-16 03:10:00,72.9,62.1,29.97,North,0,2.2,2.2,62,0.00,,,-99.99,Homeseer,2013-01-16 08:10:00,
2013-01-16 03:20:00,72.9,62.1,29.97,SSE,157,2.7,3.4,62,0.00,,,-99.99,Homeseer,2013-01-16 08:20:00,
2013-01-16 03:30:00,73.0,62.2,29.97,North,0,0.9,0.0,62,0.00,,,-99.99,Homeseer,2013-01-16 08:30:00,
2013-01-16 03:40:00,73.0,62.2,29.97,North,0,1.1,0.0,62,0.00,,,-99.99,Homeseer,2013-01-16 08:40:00,
2013-01-16 03:50:00,73.0,62.6,29.97,SSE,157,3.1,3.1,63,0.00,,,-99.99,Homeseer,2013-01-16 08:50:00,
2013-01-16 04:00:00,73.2,65.1,29.97,SSE,157,4.3,5.8,70,0.00,,,-99.99,Homeseer,2013-01-16 09:00:00,
2013-01-16 04:10:00,72.7,64.9,29.97,SSE,157,4.7,4.7,71,0.00,,,-99.99,Homeseer,2013-01-16 09:10:00,
2013-01-16 04:20:00,72.7,64.6,29.97,North,0,1.3,2.0,70,0.00,,,-99.99,Homeseer,2013-01-16 09:20:00,
2013-01-16 04:30:00,72.5,64.7,29.97,North,0,2.0,2.2,71,0.00,,,-99.99,Homeseer,2013-01-16 09:30:00,
2013-01-16 04:40:00,72.3,66.1,29.97,ESE,112,2.9,3.4,76,0.00,,,-99.99,Homeseer,2013-01-16 09:40:00,
2013-01-16 04:50:00,72.5,66.8,29.97,WSW,247,2.5,2.5,78,0.00,,,-99.99,Homeseer,2013-01-16 09:50:00,
2013-01-16 05:00:00,72.5,66.8,29.97,SSE,157,3.8,4.0,78,0.00,,,-99.99,Homeseer,2013-01-16 10:00:00,
2013-01-16 05:10:00,72.7,66.7,29.97,South,180,3.8,3.8,77,0.00,,,-99.99,Homeseer,2013-01-16 10:10:00,
2013-01-16 05:20:00,72.7,66.1,29.97,South,180,1.6,1.6,75,0.00,,,-99.99,Homeseer,2013-01-16 10:20:00,
2013-01-16 05:30:00,72.7,66.1,29.97,North,0,2.5,2.5,75,0.00,,,-99.99,Homeseer,2013-01-16 10:30:00,
2013-01-16 05:40:00,72.9,66.0,29.97,SE,135,3.4,3.8,74,0.00,,,-99.99,Homeseer,2013-01-16 10:40:00,
2013-01-16 05:50:00,72.7,65.8,29.97,SE,135,2.2,2.2,74,0.00,,,-99.99,Homeseer,2013-01-16 10:50:00,
2013-01-16 06:00:00,72.7,65.8,29.97,South,180,3.4,3.4,74,0.00,,,-99.99,Homeseer,2013-01-16 11:00:00,
2013-01-16 06:10:00,72.7,65.5,29.97,SSE,157,2.5,2.5,73,0.00,,,-99.99,Homeseer,2013-01-16 11:10:00,
2013-01-16 06:20:00,72.7,65.5,29.97,North,0,2.7,2.7,73,0.00,,,-99.99,Homeseer,2013-01-16 11:20:00,
2013-01-16 06:30:00,72.5,65.3,29.97,SSE,157,0.9,0.0,73,0.00,,,-99.99,Homeseer,2013-01-16 11:30:00,
2013-01-16 06:40:00,72.5,65.7,29.97,North,0,2.9,2.9,74,0.00,,,-99.99,Homeseer,2013-01-16 11:40:00,
2013-01-16 06:50:00,72.5,65.3,30.00,North,0,0.0,0.0,73,0.00,,,-99.99,Homeseer,2013-01-16 11:50:00,
2013-01-16 07:00:00,72.3,65.2,30.00,South,180,1.3,1.6,73,0.00,,,-99.99,Homeseer,2013-01-16 12:00:00,
2013-01-16 07:10:00,72.3,65.5,30.00,SSE,157,1.6,1.6,74,0.00,,,-99.99,Homeseer,2013-01-16 12:10:00,
2013-01-16 07:20:00,72.3,65.2,30.00,South,180,2.5,3.6,73,0.00,,,-99.99,Homeseer,2013-01-16 12:20:00,
2013-01-16 07:30:00,72.5,65.3,30.00,SSE,157,2.9,3.1,73,0.00,,,-99.99,Homeseer,2013-01-16 12:30:00,
2013-01-16 07:40:00,72.7,65.5,30.00,SSE,157,4.0,6.3,73,0.00,,,-99.99,Homeseer,2013-01-16 12:40:00,
2013-01-16 07:50:00,73.2,66.3,30.00,SSE,157,3.1,4.0,74,0.00,,,-99.99,Homeseer,2013-01-16 12:50:00,
2013-01-16 08:00:00,73.6,66.7,30.00,SSE,157,4.0,4.0,74,0.00,,,-99.99,Homeseer,2013-01-16 13:00:00,
2013-01-16 08:10:00,73.6,66.4,30.00,South,180,2.5,3.8,73,0.00,,,-99.99,Homeseer,2013-01-16 13:10:00,
2013-01-16 08:20:00,73.9,67.0,30.00,ESE,112,5.4,5.4,74,0.00,,,-99.99,Homeseer,2013-01-16 13:20:00,
2013-01-16 08:30:00,74.3,66.1,30.00,WSW,247,3.4,3.4,70,0.00,,,-99.99,Homeseer,2013-01-16 13:30:00,
2013-01-16 08:40:00,74.7,65.9,30.00,WSW,247,3.8,5.4,68,0.00,,,-99.99,Homeseer,2013-01-16 13:40:00,
2013-01-16 08:50:00,74.7,65.9,30.03,North,0,3.1,4.3,68,0.00,,,-99.99,Homeseer,2013-01-16 13:50:00,
2013-01-16 09:00:00,75.2,66.3,30.03,SE,135,3.4,3.6,68,0.00,,,-99.99,Homeseer,2013-01-16 14:00:00,
2013-01-16 09:10:00,75.6,66.7,30.03,SSE,157,4.9,6.0,68,0.00,,,-99.99,Homeseer,2013-01-16 14:10:00,
2013-01-16 09:20:00,75.9,67.0,30.03,ESE,112,4.0,6.0,68,0.00,,,-99.99,Homeseer,2013-01-16 14:20:00,
2013-01-16 09:30:00,76.1,66.8,30.03,North,0,4.7,4.9,67,0.00,,,-99.99,Homeseer,2013-01-16 14:30:00,
2013-01-16 09:40:00,76.5,66.9,30.03,North,0,4.0,5.6,66,0.00,,,-99.99,Homeseer,2013-01-16 14:40:00,
2013-01-16 09:50:00,76.8,66.5,30.03,South,180,3.4,4.3,64,0.00,,,-99.99,Homeseer,2013-01-16 14:50:00,
2013-01-16 10:00:00,77.2,66.5,30.03,SE,135,4.9,4.9,63,0.00,,,-99.99,Homeseer,2013-01-16 15:00:00,
2013-01-16 10:10:00,77.5,66.1,30.03,SSE,157,3.8,3.8,61,0.00,,,-99.99,Homeseer,2013-01-16 15:10:00,
2013-01-16 10:20:00,78.1,66.2,30.03,SE,135,3.6,5.4,60,0.00,,,-99.99,Homeseer,2013-01-16 15:20:00,
2013-01-16 10:30:00,78.3,65.7,30.03,SE,135,3.4,3.6,58,0.00,,,-99.99,Homeseer,2013-01-16 15:30:00,
2013-01-16 10:40:00,78.1,65.5,30.03,SE,135,3.6,3.6,58,0.00,,,-99.99,Homeseer,2013-01-16 15:40:00,
2013-01-16 10:50:00,77.7,65.5,30.03,North,0,2.9,4.0,59,0.00,,,-99.99,Homeseer,2013-01-16 15:50:00,
2013-01-16 11:00:00,78.8,66.1,30.00,ESE,112,4.9,4.9,58,0.00,,,-99.99,Homeseer,2013-01-16 16:00:00,
2013-01-16 11:10:00,79.0,65.9,30.00,ESE,112,5.6,5.6,57,0.00,,,-99.99,Homeseer,2013-01-16 16:10:00,
2013-01-16 11:20:00,79.0,65.9,30.00,SW,225,3.4,3.4,57,0.00,,,-99.99,Homeseer,2013-01-16 16:20:00,
2013-01-16 11:30:00,79.5,66.4,30.00,South,180,3.6,3.6,57,0.00,,,-99.99,Homeseer,2013-01-16 16:30:00,
2013-01-16 11:40:00,79.5,66.0,30.00,SSE,157,4.7,4.9,56,0.00,,,-99.99,Homeseer,2013-01-16 16:40:00,
2013-01-16 11:50:00,80.1,66.6,30.00,SE,135,4.3,4.3,56,0.00,,,-99.99,Homeseer,2013-01-16 16:50:00,
2013-01-16 12:00:00,79.7,66.6,30.00,SSE,157,4.3,5.4,57,0.00,,,-99.99,Homeseer,2013-01-16 17:00:00,
2013-01-16 12:10:00,80.2,66.2,30.00,South,180,3.6,3.6,55,0.00,,,-99.99,Homeseer,2013-01-16 17:10:00,
2013-01-16 12:20:00,80.6,66.6,30.00,SSE,157,3.1,4.9,55,0.00,,,-99.99,Homeseer,2013-01-16 17:20:00,
2013-01-16 12:30:00,80.1,66.1,29.97,SSE,157,3.4,3.4,55,0.00,,,-99.99,Homeseer,2013-01-16 17:30:00,
2013-01-16 12:40:00,79.7,66.2,29.97,South,180,3.4,4.7,56,0.00,,,-99.99,Homeseer,2013-01-16 17:40:00,
2013-01-16 12:50:00,79.9,66.0,29.97,SSE,157,4.3,4.3,55,0.00,,,-99.99,Homeseer,2013-01-16 17:50:00,
2013-01-16 13:00:00,80.2,66.2,29.97,North,0,4.0,8.5,55,0.00,,,-99.99,Homeseer,2013-01-16 18:00:00,
2013-01-16 13:10:00,80.2,66.6,29.97,SSE,157,4.5,4.5,56,0.00,,,-99.99,Homeseer,2013-01-16 18:10:00,
2013-01-16 13:20:00,80.2,66.2,29.97,SSE,157,3.4,6.0,55,0.00,,,-99.99,Homeseer,2013-01-16 18:20:00,
2013-01-16 13:30:00,80.4,66.4,29.94,ESE,112,8.7,8.7,55,0.00,,,-99.99,Homeseer,2013-01-16 18:30:00,
2013-01-16 13:40:00,80.4,67.2,29.94,SSE,157,4.5,4.5,57,0.00,,,-99.99,Homeseer,2013-01-16 18:40:00,
2013-01-16 13:50:00,80.1,66.9,29.94,ESE,112,4.0,4.9,57,0.00,,,-99.99,Homeseer,2013-01-16 18:50:00,
2013-01-16 14:00:00,81.0,67.0,29.94,SSE,157,4.9,5.8,55,0.00,,,-99.99,Homeseer,2013-01-16 19:00:00,
2013-01-16 14:10:00,81.0,66.1,29.94,South,180,4.3,4.3,53,0.00,,,-99.99,Homeseer,2013-01-16 19:10:00,
2013-01-16 14:20:00,81.5,67.0,29.94,North,0,4.3,4.3,54,0.00,,,-99.99,Homeseer,2013-01-16 19:20:00,
2013-01-16 14:30:00,81.1,66.2,29.94,ESE,112,4.9,4.9,53,0.00,,,-99.99,Homeseer,2013-01-16 19:30:00,
2013-01-16 14:40:00,81.1,66.2,29.94,SSE,157,4.0,5.6,53,0.00,,,-99.99,Homeseer,2013-01-16 19:40:00,
2013-01-16 14:50:00,81.3,66.4,29.94,SSE,157,4.0,4.0,53,0.00,,,-99.99,Homeseer,2013-01-16 19:50:00,
2013-01-16 15:00:00,81.5,66.6,29.94,North,0,4.9,7.8,53,0.00,,,-99.99,Homeseer,2013-01-16 20:00:00,
2013-01-16 15:10:00,81.5,66.6,29.94,WSW,247,3.8,3.8,53,0.00,,,-99.99,Homeseer,2013-01-16 20:10:00,
2013-01-16 15:20:00,81.0,66.1,29.94,SSE,157,3.8,3.8,53,0.00,,,-99.99,Homeseer,2013-01-16 20:20:00,
2013-01-16 15:30:00,80.4,66.4,29.94,South,180,2.9,3.1,55,0.00,,,-99.99,Homeseer,2013-01-16 20:30:00,
2013-01-16 15:40:00,80.6,66.6,29.94,SSE,157,4.3,4.3,55,0.00,,,-99.99,Homeseer,2013-01-16 20:40:00,
2013-01-16 15:50:00,80.2,66.6,29.94,North,0,4.0,4.0,56,0.00,,,-99.99,Homeseer,2013-01-16 20:50:00,
2013-01-16 16:00:00,80.1,66.1,29.94,South,180,4.7,4.7,55,0.00,,,-99.99,Homeseer,2013-01-16 21:00:00,
2013-01-16 16:10:00,79.5,66.4,29.94,SSE,157,3.4,6.3,57,0.00,,,-99.99,Homeseer,2013-01-16 21:10:00,
2013-01-16 16:20:00,79.2,66.1,29.97,North,0,2.7,2.9,57,0.00,,,-99.99,Homeseer,2013-01-16 21:20:00,
2013-01-16 16:30:00,79.0,65.9,29.94,South,180,2.5,2.5,57,0.00,,,-99.99,Homeseer,2013-01-16 21:30:00,
2013-01-16 16:40:00,79.0,66.3,29.94,South,180,3.1,3.1,58,0.00,,,-99.99,Homeseer,2013-01-16 21:40:00,
2013-01-16 16:50:00,78.3,66.4,29.97,North,0,3.8,6.0,60,0.00,,,-99.99,Homeseer,2013-01-16 21:50:00,
2013-01-16 17:00:00,78.1,66.2,29.97,WSW,247,2.7,3.6,60,0.00,,,-99.99,Homeseer,2013-01-16 22:00:00,
2013-01-16 17:10:00,77.9,66.1,29.97,North,0,2.9,4.7,60,0.00,,,-99.99,Homeseer,2013-01-16 22:10:00,
2013-01-16 17:20:00,77.5,66.1,29.97,SSE,157,2.0,3.1,61,0.00,,,-99.99,Homeseer,2013-01-16 22:20:00,
2013-01-16 17:30:00,77.2,66.1,29.97,North,0,3.8,6.0,62,0.00,,,-99.99,Homeseer,2013-01-16 22:30:00,
2013-01-16 17:40:00,76.8,66.5,29.97,South,180,3.4,3.4,64,0.00,,,-99.99,Homeseer,2013-01-16 22:40:00,
2013-01-16 17:50:00,76.6,66.6,29.97,South,180,2.9,2.9,65,0.00,,,-99.99,Homeseer,2013-01-16 22:50:00,
2013-01-16 18:00:00,76.5,67.6,29.97,ESE,112,2.7,3.1,68,0.00,,,-99.99,Homeseer,2013-01-16 23:00:00,
2013-01-16 18:10:00,76.3,67.7,29.97,ESE,112,2.7,2.9,69,0.00,,,-99.99,Homeseer,2013-01-16 23:10:00,
2013-01-16 18:20:00,76.1,67.5,29.97,ESE,112,3.1,3.1,69,0.00,,,-99.99,Homeseer,2013-01-16 23:20:00,
2013-01-16 18:30:00,75.9,67.6,29.97,SSE,157,2.9,2.9,70,0.00,,,-99.99,Homeseer,2013-01-16 23:30:00,
2013-01-16 18:40:00,75.7,67.8,29.97,SSE,157,4.5,4.5,71,0.00,,,-99.99,Homeseer,2013-01-16 23:40:00,
2013-01-16 18:50:00,75.7,67.8,29.97,ESE,112,3.1,3.6,71,0.00,,,-99.99,Homeseer,2013-01-16 23:50:00,
2013-01-16 19:00:00,75.7,67.8,29.97,North,0,2.9,2.9,71,0.00,,,-99.99,Homeseer,2013-01-17 00:00:00,
2013-01-16 19:10:00,75.4,67.8,29.97,South,180,4.5,6.5,72,0.00,,,-99.99,Homeseer,2013-01-17 00:10:00,
2013-01-16 19:20:00,75.4,67.5,29.97,North,0,2.9,2.9,71,0.00,,,-99.99,Homeseer,2013-01-17 00:20:00,
2013-01-16 19:30:00,75.4,67.8,29.97,North,0,2.9,4.3,72,0.00,,,-99.99,Homeseer,2013-01-17 00:30:00,
2013-01-16 19:40:00,75.2,67.9,29.97,SE,135,4.0,4.7,73,0.00,,,-99.99,Homeseer,2013-01-17 00:40:00,
2013-01-16 19:50:00,75.2,67.6,29.97,South,180,4.7,4.7,72,0.00,,,-99.99,Homeseer,2013-01-17 00:50:00,
2013-01-16 20:00:00,75.0,67.7,29.97,SE,135,3.1,3.1,73,0.00,,,-99.99,Homeseer,2013-01-17 01:00:00,
2013-01-16 20:10:00,75.2,67.6,29.97,SSE,157,4.5,6.3,72,0.00,,,-99.99,Homeseer,2013-01-17 01:10:00,
2013-01-16 20:20:00,75.2,67.6,29.97,North,0,3.4,3.6,72,0.00,,,-99.99,Homeseer,2013-01-17 01:20:00,
2013-01-16 20:30:00,75.0,67.4,29.97,South,180,2.9,2.9,72,0.00,,,-99.99,Homeseer,2013-01-17 01:30:00,
2013-01-16 20:40:00,75.0,67.4,29.97,SSE,157,2.5,2.7,72,0.00,,,-99.99,Homeseer,2013-01-17 01:40:00,
2013-01-16 20:50:00,75.0,67.4,29.97,South,180,2.9,2.9,72,0.00,,,-99.99,Homeseer,2013-01-17 01:50:00,
2013-01-16 21:00:00,74.8,67.9,30.00,South,180,2.0,2.0,74,0.00,,,-99.99,Homeseer,2013-01-17 02:00:00,
2013-01-16 21:10:00,74.8,67.9,30.00,North,0,2.2,2.9,74,0.00,,,-99.99,Homeseer,2013-01-17 02:10:00,
2013-01-16 21:30:00,74.8,67.5,30.00,SSE,157,2.9,2.9,73,0.00,,,-99.99,Homeseer,2013-01-17 02:30:00,
2013-01-16 21:40:00,74.8,67.2,30.00,North,0,3.4,3.4,72,0.00,,,-99.99,Homeseer,2013-01-17 02:40:00,
2013-01-16 21:50:00,74.8,67.5,29.97,North,0,2.9,3.1,73,0.00,,,-99.99,Homeseer,2013-01-17 02:50:00,
2013-01-16 22:00:00,74.8,68.2,29.97,SSE,157,3.6,3.6,75,0.00,,,-99.99,Homeseer,2013-01-17 03:00:00,
2013-01-16 22:10:00,74.8,68.2,29.97,SSE,157,2.7,3.4,75,0.00,,,-99.99,Homeseer,2013-01-17 03:10:00,
2013-01-16 22:20:00,75.0,68.9,29.97,SE,135,2.9,3.8,77,0.00,,,-99.99,Homeseer,2013-01-17 03:20:00,
2013-01-16 22:30:00,75.0,68.9,29.97,SE,135,3.6,6.7,77,0.00,,,-99.99,Homeseer,2013-01-17 03:30:00,
2013-01-16 22:40:00,75.0,68.9,29.97,SE,135,3.8,4.7,77,0.00,,,-99.99,Homeseer,2013-01-17 03:40:00,
2013-01-16 22:50:00,74.8,69.9,29.97,North,0,2.9,2.9,81,0.00,,,-99.99,Homeseer,2013-01-17 03:50:00,
2013-01-16 23:00:00,74.5,70.2,29.97,North,0,2.9,3.8,83,0.00,,,-99.99,Homeseer,2013-01-17 04:00:00,
2013-01-16 23:10:00,74.5,70.2,29.97,North,0,1.3,1.3,83,0.00,,,-99.99,Homeseer,2013-01-17 04:10:00,
2013-01-16 23:30:00,73.2,70.0,29.97,North,0,1.1,1.1,87,0.00,,,-99.99,Homeseer,2013-01-17 04:30:00,
2013-01-16 23:40:00,73.0,70.3,29.97,NNE,22,0.9,0.0,89,0.00,,,-99.99,Homeseer,2013-01-17 04:40:00,
2013-01-16 23:50:00,72.7,69.8,29.97,WSW,247,0.0,1.6,88,0.00,,,-99.99,Homeseer,2013-01-17 04:50:00,